Location: Kumla
(59.1265°N, 15.1401°E)
Time: 21:09:37
(UTC+01:00)

Vanguard 2 Rocket - Visible Passes

Search period start: 06 December 2023 00:00
Search period end: 16 December 2023 00:00
Orbit: 552 x 3312 km, 32.9° (Epoch: 05 December)

Date Brightness Start Highest point End Pass type
(mag) Time Alt. Az. Time Alt. Az. Time Alt. Az.
06 Dec 10.8 15:36:31 10° SW 15:51:05 28° S 16:05:34 10° SE visible
06 Dec 10.7 17:50:27 10° WSW 18:04:45 26° SSW 18:17:36 10° SSE visible
06 Dec 10.8 20:09:07 10° WSW 20:17:10 14° SW 20:24:25 10° SSW visible
07 Dec 10.8 16:47:23 10° WSW 17:02:09 28° S 17:16:14 10° SE visible
07 Dec 10.7 19:03:36 10° WSW 19:15:15 19° SSW 19:25:41 10° S visible
08 Dec 10.9 15:44:57 10° SW 15:59:24 29° S 16:14:13 10° SE visible
08 Dec 10.8 17:59:30 10° WSW 18:12:59 23° SSW 18:25:29 10° SSE visible
08 Dec 11.0 20:21:53 10° WSW 20:25:03 11° SW 20:28:08 10° SW visible
09 Dec 10.9 16:56:16 10° WSW 17:10:26 26° SSW 17:24:23 10° SSE visible
09 Dec 10.9 19:13:43 10° WSW 19:23:16 16° SW 19:32:12 10° S visible
10 Dec 11.0 15:53:41 10° SW 16:07:44 28° S 16:22:32 10° SE visible
10 Dec 10.9 18:08:59 10° WSW 18:21:07 20° SSW 18:32:46 10° S visible
11 Dec 11.0 17:05:27 10° WSW 17:18:41 24° SSW 17:32:04 10° SSE visible
11 Dec 11.2 19:25:33 10° WSW 19:31:11 12° SW 19:36:41 10° SSW visible
12 Dec 11.1 16:02:44 10° WSW 16:16:04 26° SSW 16:30:29 10° SSE visible
12 Dec 11.1 18:19:09 10° WSW 18:29:11 17° SW 18:39:05 10° S visible
13 Dec 11.1 17:15:05 10° WSW 17:26:53 21° SSW 17:39:06 10° S visible
14 Dec 11.2 16:12:06 10° WSW 16:24:23 23° SSW 16:37:56 10° SSE visible
14 Dec 11.4 18:30:54 10° WSW 18:37:11 12° SW 18:43:31 10° SSW visible
15 Dec 11.3 17:25:25 10° WSW 17:35:03 17° SSW 17:45:10 10° S visible
